Location: Unspecified
(35.6961°N, 0.0000°E)
Time: 06:26:05
(UTC+00:00)

SR - All Passes

Search period start: 21 May 2019 00:00
Search period end: 31 May 2019 00:00
Orbit: 583 x 873 km, 66.7° (Epoch: 20 May)

Date Brightness Start Highest point End Pass type
(mag) Time Alt. Az. Time Alt. Az. Time Alt. Az.
21 May - 10:52:58 10° SSW 10:57:19 65° ESE 11:01:33 10° NNE daylight
21 May - 12:38:18 10° WNW 12:39:44 11° NW 12:41:09 10° NNW daylight
21 May - 19:36:06 10° N 19:39:54 24° NE 19:43:55 10° ESE visible
21 May - 21:17:39 10° NW 21:21:55 34° WSW 21:26:32 10° S visible
22 May - 10:04:11 10° SSE 10:07:52 26° ESE 10:11:26 10° NE daylight
22 May - 11:46:15 10° WSW 11:49:47 24° NW 11:53:16 10° N daylight
22 May - 18:48:06 10° NNE 18:49:58 12° NE 18:51:52 10° ENE daylight
22 May - 20:27:42 10° NNW 20:32:25 78° WSW 20:37:32 10° SSE visible
23 May - 09:17:32 10° ESE 09:18:32 11° ESE 09:19:33 10° E daylight
23 May - 10:55:46 10° SW 11:00:03 54° WNW 11:04:14 10° NNE daylight
23 May - 19:38:16 10° NNW 19:42:48 47° ENE 19:47:41 10° SE visible
23 May - 21:21:26 10° WNW 21:24:31 17° WSW 21:27:45 10° SSW visible
24 May - 10:06:09 10° SSW 10:10:28 60° ESE 10:14:40 10° NE daylight
24 May - 11:51:05 10° WNW 11:52:50 12° NW 11:54:34 10° NNW daylight
24 May - 18:49:18 10° N 18:53:02 23° NE 18:56:58 10° ESE daylight
24 May - 20:30:43 10° NW 20:35:06 37° WSW 20:39:49 10° S visible
25 May - 09:17:29 10° SSE 09:21:02 24° ESE 09:24:28 10° NE daylight
25 May - 10:59:17 10° WSW 11:02:54 25° NW 11:06:28 10° N daylight
25 May - 18:01:29 10° NNE 18:03:04 11° NE 18:04:41 10° ENE daylight
25 May - 19:40:50 10° NNW 19:45:34 84° WSW 19:50:44 10° SSE visible
26 May - 10:08:53 10° SW 10:13:11 59° WNW 10:17:23 10° NNE daylight
26 May - 18:51:26 10° NNW 18:55:56 44° ENE 19:00:49 10° SE daylight
26 May - 20:34:23 10° WNW 20:37:42 18° WSW 20:41:10 10° SSW visible
27 May - 09:19:21 10° S 09:23:37 55° ESE 09:27:46 10° NE daylight
27 May - 11:03:55 10° WNW 11:05:56 13° NW 11:07:56 10° NNW daylight
27 May - 18:02:31 10° N 18:06:10 22° NE 18:10:01 10° ESE daylight
27 May - 19:43:47 10° NW 19:48:16 40° WSW 19:53:05 10° S visible
28 May - 08:30:47 10° SSE 08:34:11 22° ESE 08:37:30 10° ENE daylight
28 May - 10:12:19 10° WSW 10:16:01 27° WNW 10:19:40 10° N daylight
28 May - 17:14:57 10° NNE 17:16:10 11° NE 17:17:25 10° ENE daylight
28 May - 18:53:57 10° NNW 18:58:43 89° WSW 19:03:55 10° SSE daylight
29 May - 09:22:00 10° SW 09:26:18 64° WNW 09:30:32 10° NNE daylight
29 May - 18:04:35 10° NNW 18:09:04 42° ENE 18:13:55 10° SE daylight
29 May - 19:47:21 10° WNW 19:50:52 20° WSW 19:54:33 10° SSW visible
30 May - 08:32:32 10° S 08:36:45 50° ESE 08:40:52 10° NE daylight
30 May - 10:16:47 10° W 10:19:02 14° NW 10:21:16 10° NNW daylight
30 May - 17:15:43 10° N 17:19:17 21° NE 17:23:02 10° ESE daylight
30 May - 18:56:52 10° NW 19:01:25 43° WSW 19:06:20 10° S daylight
